Location: McFarlands Corners
(41.4117°N, 81.3382°W)
Time: 03:02:12
(UTC+00:00)

Tiros 1 - Pass Details

Date: 18 February 2026
Orbit: 618 x 649 km, 48.4° (Epoch: 13 March)

Event Time Altitude Azimuth Distance (km) Brightness Sun altitude
Rises 13:09:57 0° 219° (SW) 2,911 10.4 8.7°
Reaches altitude 10° 13:12:21 10° 213° (SSW) 2,001 9.6 9.1°
Maximum altitude 13:16:42 43° 142° (SE) 883 8.8 9.9°
Drops below altitude 10° 13:21:02 10° 71° (ENE) 1,992 10.5 10.6°
Sets 13:23:25 0° 65° (ENE) 2,897 11.1 11.0°
